When you browse on this site, cookies collect data to enhance your experience and personalize the content and advertising you see.
Visit our Privacy Policy to learn more. By continuing to use the site, you agree to this use of cookies and data.

Hourly Weather Potapovka

Today, 25 September, Friday

Time Temperature Precipitation Wind Pressure Humidity
00:00 +15°C° 0 mm 2 mps 746 mmHg 56%
01:00 +13°C° 0 mm 3 mps 746 mmHg 56%
02:00 +13°C° 0 mm 3 mps 746 mmHg 56%
03:00 +13°C° 0 mm 3 mps 746 mmHg 56%
04:00 +12°C° 0 mm 3 mps 746 mmHg 55%
05:00 +12°C° 0 mm 3 mps 746 mmHg 55%
06:00 +13°C° 0 mm 3 mps 746 mmHg 53%
07:00 +14°C° 0 mm 4 mps 746 mmHg 51%
08:00 +17°C° 0 mm 4 mps 746 mmHg 49%
09:00 +18°C° 0 mm 4 mps 746 mmHg 46%
10:00 +20°C° 0 mm 4 mps 746 mmHg 43%
11:00 +22°C° 0 mm 4 mps 746 mmHg 39%
12:00 +22°C° 0 mm 4 mps 746 mmHg 37%
13:00 +23°C° 0 mm 4 mps 746 mmHg 35%
14:00 +25°C° 0 mm 4 mps 746 mmHg 33%
15:00 +22°C° 0 mm 4 mps 746 mmHg 38%
16:00 +21°C° 0 mm 4 mps 745 mmHg 43%
17:00 +19°C° 0 mm 3 mps 745 mmHg 48%
18:00 +18°C° 0 mm 4 mps 745 mmHg 49%
19:00 +18°C° 0 mm 4 mps 745 mmHg 51%
20:00 +17°C° 0 mm 4 mps 746 mmHg 53%
21:00 +17°C° 0 mm 4 mps 745 mmHg 55%
22:00 +15°C° 0 mm 4 mps 745 mmHg 56%
23:00 +15°C° 0 mm 4 mps 745 mmHg 58%

Tomorrow, 26 September, Saturday

Time Temperature Precipitation Wind Pressure Humidity
00:00 +14°C° 0 mm 4 mps 745 mmHg 59%
01:00 +14°C° 0 mm 4 mps 745 mmHg 59%
02:00 +13°C° 0 mm 4 mps 745 mmHg 60%
03:00 +13°C° 0 mm 4 mps 745 mmHg 61%
04:00 +13°C° 0 mm 4 mps 745 mmHg 63%
05:00 +12°C° 0 mm 4 mps 745 mmHg 64%
06:00 +13°C° 0 mm 4 mps 745 mmHg 61%
07:00 +14°C° 0 mm 5 mps 746 mmHg 58%
08:00 +15°C° 0 mm 5 mps 746 mmHg 56%
09:00 +17°C° 0 mm 6 mps 746 mmHg 51%
10:00 +19°C° 0 mm 6 mps 746 mmHg 46%
11:00 +21°C° 0 mm 6 mps 746 mmHg 41%
12:00 +22°C° 0 mm 6 mps 746 mmHg 40%
13:00 +22°C° 0 mm 6 mps 746 mmHg 38%
14:00 +23°C° 0 mm 6 mps 746 mmHg 37%
15:00 +22°C° 0 mm 6 mps 746 mmHg 40%
16:00 +21°C° 0 mm 5 mps 745 mmHg 43%
17:00 +19°C° 0 mm 4 mps 745 mmHg 47%
18:00 +19°C° 0 mm 5 mps 745 mmHg 48%
19:00 +17°C° 0 mm 5 mps 746 mmHg 49%
20:00 +17°C° 0 mm 5 mps 746 mmHg 50%
21:00 +16°C° 0 mm 5 mps 746 mmHg 49%
22:00 +16°C° 0 mm 5 mps 746 mmHg 48%
23:00 +16°C° 0 mm 5 mps 746 mmHg 48%

Day after tomorrow, 27 September, Sunday

Time Temperature Precipitation Wind Pressure Humidity
00:00 +16°C° 0 mm 5 mps 746 mmHg 47%
01:00 +15°C° 0 mm 5 mps 746 mmHg 46%
02:00 +15°C° 0 mm 5 mps 746 mmHg 45%
03:00 +15°C° 0 mm 6 mps 746 mmHg 43%
04:00 +15°C° 0 mm 6 mps 747 mmHg 42%
05:00 +14°C° 0 mm 6 mps 747 mmHg 40%
06:00 +15°C° 0 mm 7 mps 747 mmHg 40%
07:00 +15°C° 0 mm 7 mps 747 mmHg 40%
08:00 +15°C° 0 mm 7 mps 747 mmHg 40%
09:00 +16°C° 0 mm 8 mps 747 mmHg 38%
10:00 +17°C° 0 mm 8 mps 747 mmHg 36%
11:00 +18°C° 0 mm 8 mps 747 mmHg 35%
12:00 +20°C° 0 mm 8 mps 747 mmHg 35%
13:00 +20°C° 0 mm 8 mps 747 mmHg 35%
14:00 +21°C° 0 mm 8 mps 747 mmHg 35%
15:00 +20°C° 0 mm 7 mps 747 mmHg 36%
16:00 +20°C° 0 mm 7 mps 746 mmHg 36%
17:00 +19°C° 0 mm 6 mps 746 mmHg 37%
18:00 +19°C° 0 mm 6 mps 746 mmHg 36%
19:00 +18°C° 0 mm 7 mps 747 mmHg 36%
20:00 +18°C° 0 mm 7 mps 747 mmHg 35%
21:00 +17°C° 0 mm 6 mps 747 mmHg 38%
22:00 +17°C° 0 mm 6 mps 747 mmHg 41%
23:00 +16°C° 0 mm 5 mps 747 mmHg 44%

28 September, Monday

Time Temperature Precipitation Wind Pressure Humidity
00:00 +16°C° 0.3 mm 6 mps 747 mmHg 48%
01:00 +15°C° 0.3 mm 6 mps 747 mmHg 51%
02:00 +14°C° 0.3 mm 6 mps 747 mmHg 55%
03:00 +14°C° 0.2 mm 6 mps 747 mmHg 55%
04:00 +14°C° 0.2 mm 6 mps 747 mmHg 55%
05:00 +14°C° 0.2 mm 6 mps 747 mmHg 55%
06:00 +13°C° 0.7 mm 6 mps 748 mmHg 65%
07:00 +12°C° 0.7 mm 7 mps 748 mmHg 75%
08:00 +11°C° 0.7 mm 7 mps 748 mmHg 85%
09:00 +11°C° 0.6 mm 7 mps 748 mmHg 85%
10:00 +11°C° 0.6 mm 7 mps 748 mmHg 84%
11:00 +11°C° 0.6 mm 7 mps 748 mmHg 84%
12:00 +11°C° 0 mm 7 mps 748 mmHg 82%
13:00 +12°C° 0 mm 7 mps 748 mmHg 80%
14:00 +12°C° 0 mm 7 mps 748 mmHg 78%
15:00 +13°C° 0 mm 6 mps 748 mmHg 73%
16:00 +13°C° 0 mm 5 mps 748 mmHg 69%
17:00 +13°C° 0 mm 4 mps 748 mmHg 65%
18:00 +13°C° 0 mm 4 mps 748 mmHg 64%
19:00 +13°C° 0 mm 4 mps 748 mmHg 62%
20:00 +13°C° 0 mm 4 mps 748 mmHg 60%
21:00 +12°C° 0 mm 4 mps 748 mmHg 61%
22:00 +12°C° 0 mm 4 mps 748 mmHg 61%
23:00 +12°C° 0 mm 3 mps 748 mmHg 62%

29 September, Tuesday

Time Temperature Precipitation Wind Pressure Humidity
00:00 +12°C° 0 mm 4 mps 748 mmHg 62%
01:00 +12°C° 0 mm 4 mps 748 mmHg 61%
02:00 +12°C° 0 mm 4 mps 748 mmHg 61%
03:00 +12°C° 0 mm 4 mps 748 mmHg 62%
04:00 +12°C° 0 mm 5 mps 748 mmHg 64%
05:00 +12°C° 0 mm 5 mps 748 mmHg 65%
06:00 +13°C° 0 mm 6 mps 748 mmHg 64%
07:00 +14°C° 0 mm 6 mps 748 mmHg 62%
08:00 +14°C° 0 mm 7 mps 748 mmHg 61%
09:00 +15°C° 0 mm 7 mps 748 mmHg 56%
10:00 +16°C° 0 mm 7 mps 748 mmHg 52%
11:00 +17°C° 0 mm 7 mps 747 mmHg 47%
12:00 +17°C° 0 mm 7 mps 747 mmHg 47%
13:00 +17°C° 0 mm 7 mps 747 mmHg 47%
14:00 +17°C° 0 mm 7 mps 747 mmHg 47%
15:00 +16°C° 0 mm 7 mps 746 mmHg 46%
16:00 +16°C° 0 mm 6 mps 746 mmHg 46%
17:00 +15°C° 0 mm 6 mps 746 mmHg 46%
18:00 +15°C° 0 mm 6 mps 746 mmHg 43%
19:00 +15°C° 0 mm 6 mps 746 mmHg 40%
20:00 +15°C° 0 mm 7 mps 745 mmHg 38%
21:00 +15°C° 0 mm 6 mps 745 mmHg 38%
22:00 +14°C° 0 mm 6 mps 745 mmHg 39%
23:00 +14°C° 0 mm 6 mps 745 mmHg 39%

30 September, Wednesday

Time Temperature Precipitation Wind Pressure Humidity
00:00 +14°C° 0 mm 6 mps 744 mmHg 39%
01:00 +14°C° 0 mm 7 mps 744 mmHg 38%
02:00 +14°C° 0 mm 7 mps 744 mmHg 38%
03:00 +12°C° 0 mm 7 mps 744 mmHg 39%
04:00 +12°C° 0 mm 7 mps 744 mmHg 41%
05:00 +12°C° 0 mm 7 mps 743 mmHg 43%
06:00 +12°C° 0 mm 8 mps 743 mmHg 42%
07:00 +12°C° 0 mm 9 mps 743 mmHg 41%
08:00 +13°C° 0 mm 9 mps 743 mmHg 40%
09:00 +13°C° 0 mm 9 mps 743 mmHg 38%
10:00 +14°C° 0 mm 10 mps 743 mmHg 36%
11:00 +16°C° 0 mm 10 mps 743 mmHg 34%
12:00 +17°C° 0 mm 10 mps 743 mmHg 33%
13:00 +17°C° 0 mm 10 mps 743 mmHg 31%
14:00 +18°C° 0 mm 10 mps 743 mmHg 30%
15:00 +17°C° 0 mm 9 mps 743 mmHg 30%
16:00 +17°C° 0 mm 9 mps 743 mmHg 31%
17:00 +16°C° 0 mm 8 mps 743 mmHg 31%
18:00 +16°C° 0 mm 7 mps 743 mmHg 33%
19:00 +16°C° 0 mm 7 mps 743 mmHg 36%
20:00 +15°C° 0 mm 6 mps 743 mmHg 38%
21:00 +15°C° 0 mm 7 mps 743 mmHg 39%
22:00 +15°C° 0 mm 8 mps 742 mmHg 41%
23:00 +15°C° 0 mm 9 mps 742 mmHg 42%
Show more